EDT,Max TemperatureF,Mean TemperatureF,Min TemperatureF,Max Dew PointF,MeanDew PointF,Min DewpointF,Max Humidity, Mean Humidity, Min Humidity, Max Sea Level PressureIn, Mean Sea Level PressureIn, Min Sea Level PressureIn, Max VisibilityMiles, Mean VisibilityMiles, Min VisibilityMiles, Max Wind SpeedMPH, Mean Wind SpeedMPH, Max Gust SpeedMPH,PrecipitationIn, CloudCover, Events, WindDirDegrees
2010-10-1,63,52,41,54,48,42,100,76,51,30.06,29.93,29.82,10,9,5,16,5,25,0.01,6,Rain,331
2010-10-2,69,54,39,45,41,35,100,66,32,30.09,30.03,29.95,10,4,0,9,1,12,0.00,5,Fog,286
2010-10-3,53,49,44,48,46,42,100,89,77,30.18,30.09,30.01,10,7,1,9,1,14,0.62,8,Rain,318
2010-10-4,54,50,45,49,45,43,100,86,71,30.22,30.18,30.13,10,8,2,14,3,29,0.22,8,Rain,322
2010-10-5,46,44,42,43,41,38,96,89,82,30.26,30.19,30.13,10,8,2,14,5,21,0.15,8,Rain,306
2010-10-6,56,48,40,45,42,37,93,85,77,30.14,30.04,29.96,10,8,2,14,5,21,0.24,8,Rain,268
2010-10-7,66,53,40,46,43,38,93,68,42,30.13,30.01,29.94,10,10,6,16,5,24,0.00,3,,280
2010-10-8,72,54,35,48,39,35,100,65,29,30.22,30.15,30.09,10,4,0,10,1,15,0.00,3,Fog,270
2010-10-9,76,56,36,50,41,35,100,64,27,30.17,30.12,30.06,10,8,2,12,2,15,0.00,0,,282
2010-10-10,79,60,40,50,43,39,100,63,25,30.12,30.04,29.95,10,9,4,14,2,18,0.00,1,,251
2010-10-11,79,63,46,51,47,45,93,63,32,30.01,29.95,29.88,10,10,6,15,2,21,0.00,2,,276
2010-10-12,76,60,44,52,48,43,100,69,38,29.98,29.93,29.88,10,8,3,17,3,24,0.00,1,,305
2010-10-13,73,59,45,52,45,34,100,63,26,30.07,30.01,29.96,10,4,0,12,2,16,T,2,Fog,332
2010-10-14,59,49,38,55,46,31,100,69,38,29.97,29.93,29.80,10,7,1,21,5,31,0.46,7,Rain-Thunderstorm,301
2010-10-15,53,45,36,43,39,35,100,83,66,30.06,29.89,29.81,10,9,2,16,6,24,0.17,7,Rain-Thunderstorm,284
2010-10-16,59,46,33,40,35,32,100,70,40,30.19,30.13,30.06,10,8,2,17,4,23,0.00,0,,298
2010-10-17,70,52,34,44,39,33,100,68,35,30.17,30.10,30.00,10,10,8,20,4,26,0.00,2,,276
2010-10-18,68,53,38,47,42,37,100,72,44,30.08,30.00,29.91,10,7,1,13,2,16,0.03,4,Rain-Thunderstorm,307
2010-10-19,57,47,36,47,43,35,100,81,61,30.01,29.96,29.90,10,7,1,10,2,14,0.08,5,Rain-Thunderstorm,313
2010-10-20,61,48,35,43,37,32,100,68,35,30.02,29.96,29.88,10,4,0,14,2,18,0.00,5,Fog-Rain,292
2010-10-21,60,48,35,36,31,27,92,62,31,29.97,29.84,29.74,10,10,10,25,11,44,0.00,3,,274
2010-10-22,54,42,29,32,29,27,92,65,38,30.31,30.19,29.98,10,10,10,16,4,24,0.00,1,,296
2010-10-23,73,51,28,44,35,26,92,59,26,30.36,30.29,30.21,10,10,10,15,1,18,0.00,1,,284
2010-10-24,76,57,38,47,43,38,100,66,31,30.25,30.14,30.03,10,10,10,13,1,16,0.00,0,,275
2010-10-25,70,56,42,57,50,42,100,77,53,30.01,29.89,29.77,10,10,10,18,2,26,0.03,5,Rain,270
2010-10-26,79,62,44,61,53,44,100,73,45,29.88,29.82,29.66,10,10,10,21,5,31,0.65,5,Rain,187
2010-10-27,71,57,42,57,50,38,100,66,31,30.01,29.92,29.83,10,10,10,16,4,21,0.09,5,Rain,233
2010-10-28,65,53,41,42,33,27,86,56,25,30.17,30.03,29.96,10,10,10,22,10,30,0.00,2,,272
2010-10-29,44,35,26,32,29,26,92,73,53,30.32,30.25,30.16,10,10,10,17,6,25,T,6,Rain,285
2010-10-30,63,44,24,33,22,11,100,57,13,30.29,30.11,29.91,10,10,10,22,4,33,0.00,0,,235
2010-10-31,59,44,28,36,29,18,92,57,21,30.25,30.02,29.90,10,10,10,18,8,29,0.00,1,,288